Location: Sungai Bunut
(2.6333°N, 113.7333°E)
Time: 14:51:42
(UTC+00:00)

Altair - Pass Details

Date: 09 December 2023
Orbit: 1501 x 1682 km, 47.2° (Epoch: 24 February)

Event Time Altitude Azimuth Distance (km) Brightness Sun altitude
Rises 08:00:40 0° 323° (NW) 4,625 10.1 29.9°
Reaches altitude 10° 08:03:41 10° 324° (NW) 3,642 9.7 29.3°
Maximum altitude 08:12:50 79° 51° (NE) 1,530 7.8 27.2°
Drops below altitude 10° 08:22:08 10° 137° (SE) 3,706 9.4 25.2°
Sets 08:25:13 0° 138° (SE) 4,711 9.9 24.5°
